Regional Weather Roundup
Issued by NWS

Home | Current Version | Previous Version | Text Only | Print | Product List | Glossary On
Versions: 1 2 3 4 5 6 7 8 9 10 11 12 13 14 15 16 17 18 19 20 21 22 23 24 25 26 27 28 29 30 31 32 33 34 35 36 37 38 39 40 41 42 43 44 45 46 47 48 49 50
000
ASUS43 KIND 010309
RWRIN

WEATHER ROUNDUP FOR INDIANA
NATIONAL WEATHER SERVICE INDIANAPOLIS IN
1100 PM EDT SUN APR 30 2017

NOTE: "FAIR" INDICATES FEW OR NO CLOUDS BELOW 12,000 FEET WITH NO
SIGNIFICANT WEATHER AND/OR OBSTRUCTIONS TO VISIBILITY.

* - STATION DOES NOT REPORT WEATHER SUCH AS PRECIPITATION OR FOG.

+ - STATION NOT QUALITY CONTROLLED BY THE NATIONAL WEATHER SERVICE.
    USE DATA WITH CAUTION...ESPECIALLY DEWPOINT AND RELATIVE
    HUMIDITY OBSERVATIONS.

INZ001>003-010>013-019-020-010400-
NORTHWEST INDIANA

CITY           SKY/WX    TMP DP  RH WIND       PRES   REMARKS
GARY /AIRPORT/ CLOUDY    50  50 100 NE6       29.63F FOG
KNOX *+        CLOUDY    63  57  82 SE9       29.62F
LA PORTE +     CLOUDY    61  61  99 E8        29.63F FOG
MICHIGAN CITY+ CLOUDY    55  55 100 CALM      29.62F FOG
MONTICELLO +   MOCLDY    64  63  95 SE6       29.61F
RENSSELAER +   LGT RAIN  63  61  94 E9        29.60F
VALPARAISO     FOG       61  61 100 E8        29.61F VSB 3/4

$$

LMZ046-743>745-010400-
SOUTHERN LAKE MICHIGAN

STATION/POSITION TIME  TEMP    WIND        PRES    WAVE
                       AIR SEA DIR/SP/G            HT
                 (UTC) (F)     (DEG/KT/KT) (MB)    (FT)
BURNS HARBOR     0240   49      40/  5/  7 1003.7F
MICHIGAN CITY    0240   55      60/  5/  6   N/A
5NW MICH CITY    0300   50 48                N/A     3

$$

INZ004-005-014>016-021>024-010400-
NORTH CENTRAL INDIANA

CITY           SKY/WX    TMP DP  RH WIND       PRES   REMARKS
GOSHEN         CLOUDY    63  60  90 E9        29.67F
LOGANSPORT +   CLOUDY    64  63  94 SE9       29.65S
PERU/GRISSOM   MOCLDY    64  64 100 SE10      29.64F
ROCHESTER +    CLOUDY    64  64 100 E7        29.65F
SOUTH BEND     CLOUDY    63  63 100 E8        29.66F
WARSAW +       CLOUDY    63  61  94 E7        29.67F

$$

INZ006>009-017-018-025>027-010400-
NORTHEAST INDIANA

CITY           SKY/WX    TMP DP  RH WIND       PRES   REMARKS
ANGOLA *+      CLOUDY    63  52  67 E9        29.70F
AUBURN +       CLOUDY    63  61  94 E7        29.71F
FORT WAYNE     CLOUDY    63  61  93 E8        29.70F
HUNTINGTON +   CLOUDY   N/A N/A N/A E9        29.68F
KENDALLVILLE + CLOUDY    63  63 100 E6        29.70F FOG

$$

INZ028-029-035-036-043>045-051>053-010400-
WEST CENTRAL INDIANA

CITY           SKY/WX    TMP DP  RH WIND       PRES   REMARKS
CRAWFORDSVL +  CLOUDY    66  66 100 S17       29.62F
GREENCASTLE +  CLOUDY    66  63  88 S14G23    29.64F
LAFAYETTE      CLOUDY    66  65  96 S12       29.60F
TERRE HAUTE    CLOUDY    70  61  73 S20G29    29.60F

$$

INZ030>032-037>040-046>048-054>057-064-065-010400-
CENTRAL INDIANA

CITY           SKY/WX    TMP DP  RH WIND       PRES   REMARKS
CP ATTERBURY + CLOUDY    70  59  68 S13G21    29.71S
FRANKFORT +    CLOUDY    68  64  88 S10       29.65F
GREENWOOD *+   CLOUDY    69  61  74 S17G23    29.69F
INDIANAPOLIS   CLOUDY    68  61  78 S17G26    29.65F
-EAGLE CREEK   PTCLDY    68  62  81 MISG      29.65F
KOKOMO +       CLOUDY    65  63  93 SE13      29.67S
MARION +       MOCLDY    64  63  94 SE10      29.69S FOG
MT COMFORT *+  PTCLDY    68  61  77 S18       29.69R
SHELBYVILLE    CLOUDY    72  60  66 S20G29    29.71R
ZIONSVILLE +   CLOUDY    67  62  86 S15G22    29.66F

$$

INZ033-034-041-042-049-050-058-059-010400-
EAST CENTRAL INDIANA

CITY           SKY/WX    TMP DP  RH WIND       PRES   REMARKS
MUNCIE         CLOUDY    72  60  66 S17G29    29.70S
RICHMOND +     CLOUDY    66  61  82 S16       29.77R

$$

INZ060-061-067>069-081>083-085>088-010400-
SOUTHWEST INDIANA

CITY           SKY/WX    TMP DP  RH WIND       PRES   REMARKS
EVANSVILLE     CLOUDY    70  62  76 S15G30    29.66R
WASHINGTON +   CLOUDY    69  59  71 S20G29    29.64S

$$

INZ062-063-066-070>080-084-089>092-010400-
SOUTH CENTRAL AND SOUTHEAST INDIANA

CITY           SKY/WX    TMP DP  RH WIND       PRES   REMARKS
BLOOMINGTON    PTCLDY    69  59  70 S14G23    29.67S
MADISON *+     MOCLDY    70  61  73 S9        29.79R
NORTH VERNON + CLOUDY    68  61  77 S10G16    29.75R

$$





USA.gov is the U.S. government's official web portal to all federal, state and local government web resources and services.